Weather History for Dallas/Ft Worth, TX

Change the Weather History Date:

Wednesday, October 1, 2014

  Actual Average Record
Temperature  
Mean Temperature 84 °F 72 °F  
Max Temperature 93 °F 83 °F 102 °F (1979)
Min Temperature 74 °F 62 °F 42 °F (1984)
Degree Days  
Heating Degree Days 0 1  
Month to date heating degree days 0 1  
Since 1 July heating degree days 1 7  
Cooling Degree Days 19 8  
Month to date cooling degree days 19 8  
Year to date cooling degree days 2740 2585  
Growing Degree Days 33 (Base 50)    
Moisture  
Dew Point 67 °F    
Average Humidity 63    
Maximum Humidity 87    
Minimum Humidity 39    
Precipitation  
Precipitation 0.00 in 0.09 in 4.85 in (1959)
Month to date precipitation 0.00 0.09  
Year to date precipitation 15.97 26.75  
Sea Level Pressure  
Sea Level Pressure 29.77 in    
Wind  
Wind Speed 13 mph (SSE)    
Max Wind Speed 22 mph    
Max Gust Speed 32 mph    
Visibility 10 miles    
Events      
T = Trace of Precipitation, MM = Missing Value Source: NWS Daily Summary

Daily Weather History Graph

Daily Weather History Graph

Search for Another Location

Airport:

Trip Planner

Search our weather history database for the weather conditions in past years. The results will help you decide how hot, cold, wet, or windy it might be!

Date:

Astronomy

Oct. 01, 2014 Rise Set
Actual Time 7:22 AM CDT 7:12 PM CDT
Civil Twilight 6:57 AM CDT 7:37 PM CDT
Nautical Twilight 6:29 AM CDT 8:05 PM CDT
Astronomical Twilight 6:00 AM CDT 8:34 PM CDT
Moon 2:10 PM CDT (10/1) No Moon Set
Length of Visible Light 12h 39m
Length of Day
11h 50m
Waxing Crescent, 49% of the Moon is Illuminated
Oct 1
Waxing Crescent
Oct 1
First Quarter
Oct 8
Full
Oct 15
Last Quarter
Oct 23
New

Hourly Weather History & Observations

Time (CDT) Temp. Heat Index Dew Point Humidity Pressure Visibility Wind Dir Wind Speed Gust Speed Precip Events Conditions
12:53 AM 73.0 °F - 63.0 °F 71% 29.88 in 10.0 mi ESE 4.6 mph - N/A   Partly Cloudy
1:53 AM 73.0 °F - 64.0 °F 73% 29.88 in 10.0 mi East 3.5 mph - N/A   Scattered Clouds
2:53 AM 73.0 °F - 64.0 °F 73% 29.88 in 10.0 mi SSE 3.5 mph - N/A   Mostly Cloudy
3:53 AM 77.0 °F - 69.1 °F 76% 29.75 in 10.0 mi South 10.4 mph - N/A   Clear
4:53 AM 75.9 °F - 69.1 °F 79% 29.76 in 10.0 mi South 9.2 mph - N/A   Clear
5:53 AM 75.0 °F - 69.1 °F 82% 29.75 in 10.0 mi South 8.1 mph - N/A   Clear
6:53 AM 73.9 °F - 70.0 °F 87% 29.76 in 10.0 mi South 10.4 mph - N/A   Partly Cloudy
7:36 AM 73.9 °F - 70.0 °F 87% 29.80 in 10.0 mi South 10.4 mph - N/A   Mostly Cloudy
7:53 AM 73.9 °F - 70.0 °F 87% 29.78 in 10.0 mi South 10.4 mph - N/A   Mostly Cloudy
8:53 AM 75.9 °F - 70.0 °F 82% 29.80 in 10.0 mi South 12.7 mph - N/A   Mostly Cloudy
9:53 AM 78.1 °F - 69.1 °F 74% 29.80 in 10.0 mi South 10.4 mph - N/A   Mostly Cloudy
10:07 AM 79.0 °F - 69.1 °F 72% 29.83 in 10.0 mi SSW 12.7 mph - N/A   Mostly Cloudy
10:35 AM 81.0 °F 84.1 °F 69.1 °F 67% 29.83 in 10.0 mi South 12.7 mph - N/A   Scattered Clouds
10:53 AM 82.0 °F 85.5 °F 69.1 °F 65% 29.80 in 10.0 mi South 11.5 mph - N/A   Scattered Clouds
11:53 AM 84.2 °F 88.4 °F 69.8 °F 62% 29.82 in 10.0 mi South 13.8 mph - N/A   Scattered Clouds
12:53 PM 87.1 °F 88.9 °F 64.9 °F 48% 29.83 in 10.0 mi South 9.2 mph - N/A   Mostly Cloudy
1:53 PM 90.0 °F 93.6 °F 68.0 °F 48% 29.75 in 10.0 mi SSE 15.0 mph 18.4 mph N/A   Scattered Clouds
2:53 PM 90.0 °F 91.3 °F 64.0 °F 42% 29.76 in 10.0 mi SSE 10.4 mph - N/A   Mostly Cloudy
3:53 PM 90.0 °F 91.3 °F 64.0 °F 42% 29.74 in 10.0 mi SE 6.9 mph - N/A   Mostly Cloudy
4:53 PM 93.0 °F 95.0 °F 64.9 °F 39% 29.69 in 10.0 mi South 15.0 mph 24.2 mph N/A   Partly Cloudy
5:53 PM 91.0 °F 91.5 °F 62.1 °F 38% 29.72 in 10.0 mi SE 12.7 mph - N/A   Scattered Clouds
6:53 PM 88.0 °F 88.7 °F 63.0 °F 43% 29.72 in 10.0 mi South 12.7 mph - N/A   Partly Cloudy
7:53 PM 88.0 °F 89.6 °F 64.9 °F 46% 29.72 in 10.0 mi South 11.5 mph - N/A   Partly Cloudy
8:53 PM 86.0 °F 87.6 °F 64.9 °F 49% 29.74 in 10.0 mi South 11.5 mph - N/A   Partly Cloudy
9:53 PM 84.9 °F 87.1 °F 66.0 °F 53% 29.73 in 10.0 mi SSE 11.5 mph - N/A   Partly Cloudy
10:53 PM 84.0 °F 86.3 °F 66.0 °F 55% 29.74 in 10.0 mi South 13.8 mph - N/A   Partly Cloudy
11:53 PM 82.0 °F 84.5 °F 66.9 °F 60% 29.74 in 10.0 mi SSE 13.8 mph - N/A   Partly Cloudy